User: anonymous   Login
Location: Catstown
(52.4386°N, 7.2633°W)
Time: 02:30:21
(UTC+00:00)
Language:

Cosmos 1455 Rocket - Orbit

View from above orbital plane
View from above orbital plane
View from above satellite
View from above satellite

Ground track
Ground track

The orbit data is extracted from the following two-line orbital elements,

1 14033U 83037B   20339.14891713  .00000144  00000-0  14443-4 0  9992
2 14033  82.5087 238.4448 0016246 258.2692 101.6701 14.83828881667331
Epoch (UTC): 04 December 2020 03:34:26
Eccentricity: 0.0016246
inclination: 82.5087°
perigee height: 606 km
apogee height: 628 km
right ascension of ascending node: 238.4448°
argument of perigee: 258.2692°
revolutions per day: 14.83828881
mean anomaly at epoch: 101.6701°
orbit number at epoch: 66733

The dashed part of the orbit path shows where the satellite is in the earth's shadow,  

DLR